Radiation Dose at Monitoring Post of Fukushima Daini Nuclear Power Station
Date,Time,MP-1(microSv/h),MP-2(microSv/h),MP-3(microSv/h),MP-4(microSv/h),MP-5(microSv/h),MP-6(microSv/h),MP-7(microSv/h),Wind Direction,Wind Velocity(m/s),Rain
2020/12/19,00:00,0.178,0.161,0.260,0.246,0.241,0.142,0.087,west,6.8,No
2020/12/19,00:10,0.179,0.160,0.259,0.246,0.240,0.143,0.086,west,7.0,No
2020/12/19,00:20,0.179,0.158,0.260,0.246,0.241,0.142,0.086,west-northwest,8.8,No
2020/12/19,00:30,0.178,0.160,0.260,0.248,0.241,0.142,0.087,west,12.3,Yes
2020/12/19,00:40,0.178,0.161,0.262,0.247,0.239,0.142,0.087,west,12.0,No
2020/12/19,00:50,0.179,0.161,0.262,0.247,0.240,0.141,0.086,west,13.3,No
2020/12/19,01:00,0.178,0.160,0.260,0.246,0.241,0.142,0.086,west,13.4,No
2020/12/19,01:10,0.178,0.160,0.259,0.246,0.240,0.143,0.087,west,14.2,No
2020/12/19,01:20,0.178,0.161,0.259,0.246,0.240,0.141,0.086,west,13.3,No
2020/12/19,01:30,0.178,0.160,0.260,0.244,0.240,0.142,0.086,west,13.7,No
2020/12/19,01:40,0.180,0.160,0.260,0.247,0.240,0.142,0.086,west,13.7,No
2020/12/19,01:50,0.179,0.160,0.259,0.246,0.241,0.142,0.086,west,13.4,No
2020/12/19,02:00,0.178,0.160,0.259,0.247,0.240,0.142,0.086,west,12.6,No
2020/12/19,02:10,0.179,0.161,0.260,0.245,0.240,0.142,0.086,west,13.9,No
2020/12/19,02:20,0.179,0.159,0.261,0.246,0.240,0.141,0.086,west,11.5,No
2020/12/19,02:30,0.178,0.160,0.261,0.245,0.241,0.142,0.086,west,11.5,No
2020/12/19,02:40,0.178,0.160,0.260,0.246,0.240,0.142,0.085,west-northwest,10.0,No
2020/12/19,02:50,0.179,0.160,0.260,0.247,0.240,0.141,0.086,west-northwest,9.5,No
2020/12/19,03:00,0.179,0.161,0.260,0.247,0.240,0.142,0.086,west-northwest,9.0,Yes
2020/12/19,03:10,0.178,0.160,0.261,0.246,0.240,0.141,0.086,west-northwest,9.3,No
2020/12/19,03:20,0.178,0.160,0.260,0.246,0.241,0.142,0.087,west-northwest,12.0,No
2020/12/19,03:30,0.178,0.161,0.260,0.246,0.241,0.142,0.086,west-northwest,11.4,No
2020/12/19,03:40,0.178,0.160,0.260,0.247,0.240,0.142,0.085,west-northwest,12.6,No
2020/12/19,03:50,0.179,0.160,0.260,0.247,0.241,0.143,0.086,northwest,12.0,No
2020/12/19,04:00,0.179,0.161,0.261,0.246,0.241,0.143,0.087,west-northwest,10.6,No
2020/12/19,04:10,0.179,0.161,0.261,0.247,0.241,0.142,0.087,west-northwest,7.9,No
2020/12/19,04:20,0.180,0.161,0.262,0.247,0.240,0.141,0.086,west-northwest,10.6,No
2020/12/19,04:30,0.179,0.160,0.262,0.247,0.240,0.143,0.086,west-northwest,10.7,No
2020/12/19,04:40,0.180,0.160,0.261,0.247,0.242,0.142,0.086,west-northwest,10.9,No
2020/12/19,04:50,0.180,0.161,0.262,0.246,0.241,0.143,0.086,west-northwest,12.0,No
2020/12/19,05:00,0.179,0.160,0.261,0.247,0.241,0.142,0.087,west-northwest,12.2,No
2020/12/19,05:10,0.179,0.161,0.261,0.246,0.240,0.142,0.086,west-northwest,13.9,No
2020/12/19,05:20,0.180,0.161,0.262,0.248,0.241,0.142,0.087,west-northwest,15.6,No
2020/12/19,05:30,0.179,0.160,0.261,0.246,0.241,0.143,0.087,west-northwest,15.1,No
2020/12/19,05:40,0.180,0.160,0.261,0.247,0.241,0.142,0.085,west-northwest,14.3,No
2020/12/19,05:50,0.179,0.161,0.261,0.247,0.241,0.143,0.086,west-northwest,15.9,No
2020/12/19,06:00,0.179,0.160,0.262,0.246,0.241,0.143,0.087,west-northwest,16.2,No
2020/12/19,06:10,0.178,0.161,0.261,0.248,0.241,0.143,0.086,west-northwest,17.2,No
2020/12/19,06:20,0.180,0.160,0.261,0.247,0.239,0.142,0.087,northwest,15.0,No
2020/12/19,06:30,0.180,0.160,0.261,0.247,0.241,0.142,0.086,west-northwest,15.8,No
2020/12/19,06:40,0.179,0.160,0.262,0.246,0.239,0.143,0.086,west-northwest,17.0,No
2020/12/19,06:50,0.179,0.160,0.262,0.247,0.240,0.142,0.086,northwest,15.7,No
2020/12/19,07:00,0.179,0.160,0.262,0.247,0.241,0.141,0.086,west-northwest,15.3,No
2020/12/19,07:10,0.179,0.160,0.262,0.247,0.241,0.142,0.086,west-northwest,15.4,No
2020/12/19,07:20,0.179,0.160,0.262,0.246,0.241,0.143,0.087,west-northwest,16.0,No
2020/12/19,07:30,0.180,0.160,0.261,0.246,0.241,0.142,0.087,west-northwest,14.7,No
2020/12/19,07:40,0.179,0.161,0.263,0.247,0.240,0.141,0.086,west-northwest,13.1,No
2020/12/19,07:50,0.179,0.160,0.262,0.246,0.240,0.142,0.087,west-northwest,11.8,No
2020/12/19,08:00,0.179,0.160,0.262,0.247,0.240,0.142,0.086,west-northwest,13.6,No
2020/12/19,08:10,0.179,0.160,0.262,0.246,0.240,0.142,0.086,northwest,11.8,No
2020/12/19,08:20,0.179,0.161,0.262,0.246,0.241,0.142,0.085,west-northwest,9.6,No
2020/12/19,08:30,0.179,0.160,0.261,0.246,0.241,0.142,0.086,west-northwest,6.6,No
2020/12/19,08:40,0.178,0.160,0.261,0.246,0.240,0.140,0.086,west,8.7,No
2020/12/19,08:50,0.178,0.159,0.262,0.245,0.240,0.141,0.085,west-northwest,7.3,No
2020/12/19,09:00,0.179,0.160,0.261,0.245,0.240,0.141,0.086,west-northwest,6.6,No
2020/12/19,09:10,0.179,0.160,0.259,0.246,0.241,0.141,0.085,west-northwest,6.2,No
2020/12/19,09:20,0.179,0.160,0.260,0.244,0.239,0.141,0.085,west-northwest,6.5,No
2020/12/19,09:30,0.179,0.160,0.261,0.245,0.241,0.141,0.086,west,5.3,No
2020/12/19,09:40,0.180,0.160,0.261,0.246,0.240,0.142,0.086,west,5.5,No
2020/12/19,09:50,0.179,0.160,0.261,0.246,0.241,0.142,0.085,west-northwest,5.0,No
2020/12/19,10:00,0.180,0.159,0.259,0.245,0.238,0.142,0.085,west-northwest,6.8,No
2020/12/19,10:10,0.179,0.159,0.260,0.246,0.240,0.141,0.086,west-northwest,7.3,No
2020/12/19,10:20,0.178,0.159,0.260,0.247,0.239,0.142,0.086,west-northwest,7.0,No
2020/12/19,10:30,0.178,0.161,0.259,0.245,0.239,0.142,0.085,west-northwest,5.7,No
2020/12/19,10:40,0.177,0.161,0.260,0.246,0.240,0.142,0.086,northwest,4.3,No
2020/12/19,10:50,0.179,0.159,0.259,0.247,0.240,0.142,0.086,west-northwest,7.4,No
2020/12/19,11:00,0.179,0.159,0.260,0.246,0.241,0.143,0.086,west-northwest,9.0,No
2020/12/19,11:10,0.179,0.161,0.260,0.246,0.241,0.141,0.086,west-northwest,9.3,No
2020/12/19,11:20,0.179,0.159,0.259,0.246,0.238,0.142,0.086,west-northwest,8.4,No
2020/12/19,11:30,0.178,0.160,0.261,0.247,0.241,0.141,0.086,west-northwest,7.9,No
2020/12/19,11:40,0.178,0.160,0.260,0.245,0.239,0.142,0.085,west-northwest,6.3,No
2020/12/19,11:50,0.178,0.159,0.259,0.248,0.241,0.142,0.086,west-northwest,7.0,No
2020/12/19,12:00,0.178,0.160,0.260,0.247,0.242,0.142,0.085,west-northwest,7.8,No
2020/12/19,12:10,0.178,0.160,0.260,0.247,0.239,0.142,0.086,west-northwest,7.1,No
2020/12/19,12:20,0.179,0.160,0.261,0.247,0.242,0.143,0.086,west-northwest,7.1,No
2020/12/19,12:30,0.179,0.160,0.259,0.246,0.240,0.143,0.086,west-northwest,7.4,No
2020/12/19,12:40,0.178,0.160,0.260,0.246,0.240,0.141,0.086,west,6.4,No
2020/12/19,12:50,0.178,0.160,0.261,0.246,0.242,0.143,0.086,west,8.4,No
2020/12/19,13:00,0.179,0.160,0.261,0.248,0.241,0.143,0.086,west,7.7,No
2020/12/19,13:10,0.180,0.160,0.261,0.247,0.240,0.142,0.086,west-northwest,5.6,No
2020/12/19,13:20,0.179,0.160,0.261,0.248,0.242,0.142,0.086,west,8.8,No
2020/12/19,13:30,0.179,0.160,0.263,0.247,0.241,0.142,0.087,west-northwest,5.9,No
2020/12/19,13:40,0.180,0.160,0.261,0.246,0.241,0.143,0.086,west,7.6,No
2020/12/19,13:50,0.178,0.160,0.260,0.247,0.241,0.141,0.086,west,8.1,No
2020/12/19,14:00,0.178,0.160,0.261,0.247,0.239,0.142,0.086,west,9.5,No
2020/12/19,14:10,0.180,0.161,0.262,0.247,0.241,0.142,0.086,west,9.5,No
2020/12/19,14:20,0.180,0.160,0.262,0.246,0.242,0.142,0.086,west,9.5,No
2020/12/19,14:30,0.179,0.161,0.260,0.247,0.240,0.142,0.086,west,8.6,No
2020/12/19,14:40,0.180,0.160,0.261,0.247,0.241,0.142,0.087,west,9.2,No
2020/12/19,14:50,0.179,0.160,0.261,0.246,0.242,0.142,0.086,west,9.5,No
2020/12/19,15:00,0.179,0.159,0.262,0.247,0.241,0.142,0.086,west,8.4,No
2020/12/19,15:10,0.179,0.161,0.263,0.247,0.241,0.142,0.085,west,9.0,No
2020/12/19,15:20,0.179,0.160,0.262,0.246,0.241,0.142,0.086,west,7.8,No
2020/12/19,15:30,0.179,0.161,0.261,0.248,0.241,0.142,0.087,west,7.7,No
2020/12/19,15:40,0.179,0.159,0.262,0.247,0.241,0.142,0.085,west,7.0,No
2020/12/19,15:50,0.178,0.159,0.261,0.247,0.241,0.142,0.086,north-northwest,2.4,No
2020/12/19,16:00,0.178,0.160,0.260,0.246,0.241,0.142,0.086,northwest,1.9,No
2020/12/19,16:10,0.180,0.160,0.260,0.247,0.241,0.142,0.086,west,5.3,No
2020/12/19,16:20,0.180,0.160,0.261,0.248,0.241,0.142,0.085,west,5.5,No
2020/12/19,16:30,0.179,0.160,0.261,0.247,0.240,0.142,0.086,west-northwest,5.2,No
2020/12/19,16:40,0.179,0.161,0.261,0.248,0.240,0.141,0.086,west-northwest,4.1,No
2020/12/19,16:50,0.179,0.160,0.260,0.247,0.240,0.143,0.086,west,5.0,No
2020/12/19,17:00,0.179,0.160,0.260,0.246,0.240,0.142,0.086,west,7.6,No
2020/12/19,17:10,0.178,0.160,0.260,0.246,0.240,0.142,0.086,west,9.0,No
2020/12/19,17:20,0.178,0.160,0.260,0.247,0.240,0.141,0.086,west,8.7,No
2020/12/19,17:30,0.179,0.159,0.261,0.247,0.240,0.142,0.085,west,7.4,No
2020/12/19,17:40,0.180,0.160,0.261,0.247,0.240,0.141,0.086,west,7.1,No
2020/12/19,17:50,0.178,0.159,0.260,0.246,0.240,0.141,0.086,west,6.1,No
2020/12/19,18:00,0.178,0.160,0.260,0.245,0.240,0.142,0.086,west,6.6,No
2020/12/19,18:10,0.178,0.160,0.260,0.246,0.240,0.142,0.086,west,6.7,No
2020/12/19,18:20,0.178,0.160,0.260,0.246,0.240,0.142,0.085,west,6.6,No
2020/12/19,18:30,0.178,0.161,0.260,0.246,0.240,0.142,0.086,west,4.8,No
2020/12/19,18:40,0.178,0.160,0.261,0.247,0.242,0.142,0.086,west,5.4,No
2020/12/19,18:50,0.178,0.161,0.261,0.246,0.240,0.141,0.085,west,5.8,No
2020/12/19,19:00,0.178,0.160,0.261,0.247,0.240,0.142,0.085,west,3.3,No
2020/12/19,19:10,0.178,0.160,0.261,0.247,0.239,0.141,0.087,west,3.9,No
2020/12/19,19:20,0.179,0.160,0.260,0.247,0.240,0.141,0.085,west-southwest,2.1,No
2020/12/19,19:30,0.178,0.160,0.259,0.246,0.240,0.141,0.085,west-northwest,3.7,No
2020/12/19,19:40,0.179,0.161,0.261,0.246,0.242,0.142,0.085,west-northwest,3.3,No
2020/12/19,19:50,0.179,0.159,0.260,0.245,0.240,0.142,0.086,west,7.0,No
2020/12/19,20:00,0.178,0.159,0.260,0.246,0.240,0.141,0.086,west-northwest,6.7,No
2020/12/19,20:10,0.178,0.160,0.260,0.246,0.241,0.142,0.086,west-northwest,6.1,No
2020/12/19,20:20,0.178,0.160,0.260,0.246,0.242,0.141,0.085,west-northwest,7.6,No
2020/12/19,20:30,0.178,0.159,0.260,0.246,0.239,0.141,0.086,west-northwest,6.6,No
2020/12/19,20:40,0.178,0.159,0.260,0.247,0.240,0.141,0.086,west-northwest,7.3,No
2020/12/19,20:50,0.178,0.160,0.261,0.245,0.240,0.142,0.086,west,6.8,No
2020/12/19,21:00,0.178,0.159,0.261,0.246,0.239,0.141,0.086,west-northwest,4.9,No
2020/12/19,21:10,0.179,0.160,0.260,0.245,0.240,0.141,0.086,west,4.7,No
2020/12/19,21:20,0.178,0.160,0.260,0.246,0.240,0.141,0.086,west-northwest,4.5,No
2020/12/19,21:30,0.178,0.160,0.259,0.247,0.241,0.141,0.085,west,5.9,No
2020/12/19,21:40,0.178,0.159,0.260,0.246,0.240,0.141,0.086,west-northwest,4.5,No
2020/12/19,21:50,0.178,0.159,0.260,0.246,0.239,0.141,0.086,northwest,4.3,No
2020/12/19,22:00,0.179,0.159,0.261,0.246,0.240,0.141,0.085,north,3.5,No
2020/12/19,22:10,0.178,0.161,0.261,0.246,0.241,0.141,0.085,north,3.6,No
2020/12/19,22:20,0.178,0.160,0.261,0.247,0.240,0.141,0.086,north,3.7,No
2020/12/19,22:30,0.178,0.160,0.260,0.247,0.240,0.141,0.086,north,3.1,No
2020/12/19,22:40,0.178,0.160,0.261,0.246,0.241,0.141,0.086,north-northwest,2.3,No
2020/12/19,22:50,0.180,0.160,0.261,0.245,0.240,0.141,0.085,northwest,2.7,No
2020/12/19,23:00,0.179,0.160,0.260,0.245,0.240,0.141,0.086,north-northwest,2.8,No
2020/12/19,23:10,0.179,0.160,0.261,0.247,0.240,0.141,0.086,north,2.9,No
2020/12/19,23:20,0.178,0.159,0.260,0.246,0.240,0.142,0.085,north-northeast,1.4,No
2020/12/19,23:30,0.177,0.160,0.260,0.247,0.240,0.141,0.086,north-northeast,1.7,No
2020/12/19,23:40,0.179,0.160,0.260,0.247,0.239,0.141,0.086,north,1.8,No
2020/12/19,23:50,0.179,0.160,0.260,0.246,0.240,0.142,0.086,north-northeast,1.7,No
